Voltar ao catálogo

CZ-6A DEB

AtivoPO
NORAD 60639·DEBRIS·🇨🇳 China

Lançado Aug 6, 2024 de Taiyuan Satellite Launch Center

Loading…

Próximas Passagens (próximas 24 horas)

TLE

AtualizadoSource: Space-Track

Época: Sep 14, 2026, 08:25 UTC

1 60639U 24140AQ  26257.35081220  .00000086  00000-0  79685-4 0  9991
2 60639  88.4768 234.7742 0454118 202.8002 155.2401 13.36055154102401

Acompanhe CZ-6A DEB em tempo real com AllMySat

Download on the App Store